K8JI Weather Reports


Display with metric or nautical units.
time (UTC)temp
F
wind
direction
speed
MPH
gust
MPH
rain 1hr
in
rain 24hr
in
rain mn
in
humidity
%
barometer
mb
20200923091904 70 302 0.0 1.0 0.00 0.00 0.00 41 1014.0
20200923090143 71 302 0.0 1.0 0.00 0.00 0.00 40 1014.0
20200923084711 71 302 0.0 1.0 0.00 0.00 0.00 40 1014.1
20200923083128 72 302 0.0 1.0 0.00 0.00 0.00 40 1014.1
20200923081706 72 302 0.0 1.0 0.00 0.00 0.00 40 1014.0
20200923080123 72 302 0.0 2.0 0.00 0.00 0.00 41 1014.0
20200923074737 72 321 0.0 2.0 0.00 0.00 0.00 44 1013.9
20200923073157 73 321 0.0 1.0 0.00 0.00 0.00 40 1013.9
20200923071712 73 321 0.0 1.0 0.00 0.00 0.00 39 1013.8
20200923070312 74 321 0.0 1.0 0.00 0.00 0.00 39 1013.6
20200923064625 74 321 0.0 2.0 0.00 0.00 0.00 39 1013.8
20200923063130 74 321 0.0 1.0 0.00 0.00 0.00 39 1013.7
20200923061537 75 321 0.0 1.0 0.00 0.00 0.00 39 1013.6
20200923060103 75 323 0.0 1.0 0.00 0.00 0.00 38 1013.7
20200923054601 76 323 0.0 1.0 0.00 0.00 0.00 38 1013.7
20200923053044 76 323 0.0 1.0 0.00 0.00 0.00 37 1013.6
20200923051627 76 323 0.0 1.0 0.00 0.00 0.00 36 1013.6
20200923050102 76 324 0.0 1.0 0.00 0.00 0.00 36 1013.5
20200923044616 77 324 0.0 1.0 0.00 0.00 0.00 36 1013.4
20200923043108 77 330 0.0 2.0 0.00 0.00 0.00 36 1013.4
20200923041559 78 330 0.0 2.0 0.00 0.00 0.00 36 1013.3
20200923040146 78 265 0.0 1.0 0.00 0.00 0.00 34 1013.1
20200923033044 80 265 0.0 1.0 0.00 0.00 0.00 33 1012.9
20200923031636 81 265 0.0 2.0 0.00 0.00 0.00 32 1012.8
20200923030045 82 265 0.0 2.0 0.00 0.00 0.00 31 1012.7
20200923024556 82 265 0.0 1.0 0.00 0.00 0.00 31 1012.4
20200923023156 83 261 0.0 1.0 0.00 0.00 0.00 30 1012.2
20200923021546 84 261 0.0 1.0 0.00 0.00 0.00 30 1012.0
20200923020114 85 261 0.0 0.0 0.00 0.00 0.00 29 1012.1
20200923014601 87 261 0.0 1.0 0.00 0.00 0.00 28 1011.8
20200923013116 89 261 0.0 1.0 0.00 0.00 0.00 27 1011.9
20200923011642 91 261 0.0 1.0 0.00 0.00 0.00 26 1011.8
20200923010112 92 263 1.0 3.0 0.00 0.00 0.00 25 1012.0
20200923004537 93 219 1.0 5.0 0.00 0.00 0.00 24 1011.8
20200923003043 94 221 1.0 3.0 0.00 0.00 0.00 24 1011.9
20200923001605 96 157 2.0 5.0 0.00 0.00 0.00 22 1011.8
20200923000112 97 283 1.0 5.0 0.00 0.00 0.00 21 1011.7
20200922234547 98 249 1.0 4.0 0.00 0.00 0.00 21 1011.7
20200922233045 98 142 1.0 5.0 0.00 0.00 0.00 21 1011.5
20200922231558 96 120 2.0 4.0 0.00 0.00 0.00 23 1011.7
20200922230031 96 148 2.0 4.0 0.00 0.00 0.00 23 1012.1
20200922224529 98 100 2.0 7.0 0.00 0.00 0.00 23 1012.1
20200922223023 98 261 2.0 6.0 0.00 0.00 0.00 22 1012.1
20200922221529 98 234 1.0 5.0 0.00 0.00 0.00 23 1012.2
20200922220050 98 141 2.0 6.0 0.00 0.00 0.00 22 1012.5
20200922214631 98 209 0.0 5.0 0.00 0.00 0.00 23 1012.6
20200922213029 97 249 2.0 9.0 0.00 0.00 0.00 23 1012.7
20200922211616 97 161 2.0 5.0 0.00 0.00 0.00 23 1012.9
20200922210030 97 194 3.0 6.0 0.00 0.00 0.00 23 1013.3
20200922204516 96 5 2.0 5.0 0.00 0.00 0.00 24 1013.4
20200922203124 94 200 3.0 6.0 0.00 0.00 0.00 25 1013.6
20200922201749 94 113 3.0 9.0 0.00 0.00 0.00 27 1013.7
20200922200246 93 140 5.0 9.0 0.00 0.00 0.00 27 1013.9
20200922194709 93 132 2.0 8.0 0.00 0.00 0.00 27 1014.3
20200922193130 92 80 0.0 7.0 0.00 0.00 0.00 29 1014.5
20200922191621 91 92 3.0 7.0 0.00 0.00 0.00 29 1014.6
20200922190103 90 86 1.0 6.0 0.00 0.00 0.00 30 1014.8
20200922184626 91 102 2.0 6.0 0.00 0.00 0.00 29 1015.3
20200922183140 91 31 2.0 6.0 0.00 0.00 0.00 30 1015.2
20200922181646 89 15 2.0 5.0 0.00 0.00 0.00 32 1015.4
20200922180119 87 348 1.0 5.0 0.00 0.00 0.00 35 1015.4
20200922174541 86 84 1.0 3.0 0.00 0.00 0.00 36 1015.4
20200922173110 85 344 2.0 6.0 0.00 0.00 0.00 36 1015.4
20200922171603 84 331 1.0 5.0 0.00 0.00 0.00 39 1015.6
20200922170117 85 272 1.0 7.0 0.00 0.00 0.00 36 1016.0
20200922164555 84 304 2.0 7.0 0.00 0.00 0.00 36 1015.8
20200922163223 84 266 2.0 7.0 0.00 0.00 0.00 36 1015.9
20200922161549 84 262 3.0 8.0 0.00 0.00 0.00 36 1015.7
20200922160035 84 339 2.0 8.0 0.00 0.00 0.00 34 1015.7
20200922154525 85 180 3.0 10.0 0.00 0.00 0.00 35 1015.6
20200922153019 83 237 3.0 8.0 0.00 0.00 0.00 36 1015.8
20200922151542 81 179 1.0 3.0 0.00 0.00 0.00 32 1015.6
20200922150024 80 44 0.0 1.0 0.00 0.00 0.00 34 1015.0
20200922144512 81 43 0.0 2.0 0.00 0.00 0.00 34 1014.8
20200922143014 82 40 0.0 2.0 0.00 0.00 0.00 33 1014.5
20200922141519 82 103 0.0 3.0 0.00 0.00 0.00 32 1014.4
20200922140206 81 48 0.0 2.0 0.00 0.00 0.00 32 1014.3
20200922134751 80 282 1.0 4.0 0.00 0.00 0.00 33 1014.1
20200922133120 79 294 0.0 3.0 0.00 0.00 0.00 34 1014.1
20200922131632 79 279 1.0 4.0 0.00 0.00 0.00 34 1013.9
20200922130133 76 300 2.0 8.0 0.00 0.00 0.00 35 1013.8
20200922124607 76 314 0.0 1.0 0.00 0.00 0.00 36 1013.3
20200922123223 76 313 0.0 1.0 0.00 0.00 0.00 35 1013.2
20200922121633 76 317 0.0 1.0 0.00 0.00 0.00 35 1013.0
20200922120121 77 323 0.0 2.0 0.00 0.00 0.00 34 1012.9
20200922114651 77 323 0.0 1.0 0.00 0.00 0.00 34 1013.0
20200922113219 78 217 0.0 2.0 0.00 0.00 0.00 33 1012.8
20200922111626 80 101 0.0 3.0 0.00 0.00 0.00 32 1012.8
20200922110155 80 308 0.0 1.0 0.00 0.00 0.00 33 1012.6
20200922104713 81 308 0.0 2.0 0.00 0.00 0.00 31 1012.3
20200922103115 80 304 1.0 3.0 0.00 0.00 0.00 32 1012.1
20200922101555 79 307 1.0 3.0 0.00 0.00 0.00 33 1012.2
20200922100102 78 284 0.0 1.0 0.00 0.00 0.00 33 1012.3
20200922094643 79 284 0.0 2.0 0.00 0.00 0.00 33 1012.5
20200922093134 78 284 0.0 1.0 0.00 0.00 0.00 33 1012.4